ヴォルフ-ハリントン彗星

43P/Wolf-Harrington (2010)

English version
Home page
Updated on September 3, 2011

---------------------------------------------------------------------

・ プロフィール

・ 写真集

・ 軌道要素

Epoch 2010 June 13.0 TT = JDT 2455360.5
T 2010 July 1.75180 TT                                  MPC
q   1.3576243            (2000.0)            P               Q
n   0.16091436     Peri.  191.46931     +0.15734146     -0.95316168
a   3.3476458      Node   249.89577     +0.92642047     +0.23305968
e   0.5944540      Incl.   15.96650     +0.34203623     -0.19278486
P   6.13
From 2192 observations 1996 Sept. 17-2010 Dec. 7, mean residual 0".7.
     Nongravitational parameters A1 = +0.27, A2 = -0.0138.

・ 星図

・ 光度変化

        m1 = 7.5 + 5 logΔ + 17.0 log r

---------------------------------------------------------------------

軌道要素はM.P.E.C. 2010-X76に掲載されたものです。
星図は StellaNavigator Ver.2.0 for Windows (アストロアーツ編著 / アスキー出版局刊) で作成したものです。
光度グラフはComet for Windowsで作成したものです。

---------------------------------------------------------------------

Copyright(C) Seiichi Yoshida (comet@aerith.net). All rights reserved.